Regional Weather Roundup
Issued by NWS Northern Indiana

Home | Current Version | Previous Version | Text Only | Print | Product List | Glossary On
Versions: 1 2 3 4 5 6 7 8 9 10 11 12 13 14 15 16 17 18 19 20 21 22 23 24 25 26 27 28 29 30 31 32 33 34 35 36 37 38 39 40 41 42 43 44 45 46 47 48 49 50
000
ASUS43 KIWX 011310
RWRIWX

KIWX WEATHER ROUNDUP
NATIONAL WEATHER SERVICE NORTHERN INDIANA
800 AM EST SUN MAR 01 2015

NOTE: "FAIR" INDICATES FEW OR NO CLOUDS BELOW 12,000 FEET WITH NO
SIGNIFICANT WEATHER AND/OR OBSTRUCTIONS TO VISIBILITY.

* THESE STATIONS ARE NOT UNDER NWS QUALITY CONTROL. THEY ALSO MAY NOT
  REPORT WEATHER SUCH AS PRECIPITATION OR FOG.

INZ001>027-011400-
NORTHERN INDIANA

CITY           SKY/WX    TMP DP  RH WIND       PRES   REMARKS
GARY*          CLOUDY    19  14  79 CALM      30.38F FOG
VALPARAISO     CLOUDY    17  14  88 E5        30.37F FOG     WCI  10
MICHIGAN CITY* CLOUDY    18  12  79 CALM      30.39S
LAPORTE*       CLOUDY    18  16  90 E3        30.38S
KNOX*            N/A     19  10  68 CALM      30.37F
SOUTH BEND     CLOUDY    17  13  84 CALM      30.38F
ELKHART*       CLOUDY    16  10  79 CALM      30.39
GOSHEN         CLOUDY    17  13  84 E3        30.37F FOG
MONTICELLO*    LGT SNOW  19  18  93 CALM      30.38S VSB 1
LOGANSPORT*    LGT SNOW  19  19 100 CALM      30.38F VSB 1
ROCHESTER*     LGT SNOW  21  19  93 CALM      30.37F
WARSAW*        LGT SNOW  19  16  86 CALM      30.37S
ANGOLA*        MOCLDY    16   7  67 CALM      30.36S
FORT WAYNE     LGT SNOW  17  15  92 NE3       30.39S VSB 1
HUNTINGTON*    LGT SNOW  18  13  82 CALM      30.37F VSB 1
PERU/GRISSOM   LGT SNOW  19  18  93 NE3       30.36S FOG
MARION*        LGT SNOW  20  19  93 CALM      30.37S

$$
INZ028>050-011400-
CENTRAL INDIANA

CITY           SKY/WX    TMP DP  RH WIND       PRES   REMARKS
LAFAYETTE      SNOW      20  19  96 CALM      30.37F VSB 1/4
KOKOMO*          N/A     19  18  93 NE3       30.37F
MUNCIE*        SNOW      24  22  91 CALM      30.36S VSB 1/2
INDIANAPOLIS   HVY SNOW  24  22  91 SE3       30.35F VSB 1/4

$$
MIZ043>046-050>051-056>058-064>065-071>073-077>080-011400-
SOUTHWEST LOWER MICHIGAN

CITY           SKY/WX    TMP DP  RH WIND       PRES   REMARKS
BATTLE CREEK   MOCLDY     8   5  87 CALM      30.38S FOG
BENTON HARBOR  CLOUDY    15  13  91 E3        30.38F FOG
COLDWATER*     CLOUDY    15  12  85 CALM      30.37S
HILLSDALE*     CLOUDY    15  12  88 CALM      30.35S
HOLLAND        LGT SNOW  13   9  84 CALM      30.38S FOG
GRAND RAPIDS   LGT SNOW  11   7  84 S8        30.37S FOG     WCI  -1
KALAMAZOO      MOCLDY    12   9  87 CALM      30.39R FOG
STURGIS*       CLOUDY    14  12  92 CALM      30.36F
THREE RIVERS*  CLOUDY    15  12  88 CALM      30.39S

$$
OHZ001>008-015>018-024>025-011400-
NORTHWEST OHIO

CITY           SKY/WX    TMP DP  RH WIND       PRES   REMARKS
WAUSEON*       LGT SNOW  16  14  93 CALM      30.39S
DEFIANCE       LGT SNOW  18  14  84 CALM      30.40S VSB 1
FINDLAY        LGT SNOW  21  17  84 N5        30.37S VSB 3/4 WCI  15
TOLEDO EXPRESS LGT SNOW  18  14  86 CALM      30.39F VSB 1
TOLEDO METCALF LGT SNOW  19  15  84 CALM      30.40F FOG
LIMA           LGT SNOW  23  20  88 CALM      30.36S VSB 3/4

$$
AND FOR LAKE MICHIGAN COASTAL AND OPEN LAKE BUOY OBSERVATIONS

STATION/POSITION TEMP    WIND        PRES    VSBY  WAVE
                 AIR SEA DIR/SP/G                  HT/PER
                 (F)     (DEG/KT/KT) (MB)    (MI)  (FT/S)
CALUMET HARBOR            50/  2/  2 1027.0F
MICHIGAN CITY     17      90/  4/  6   N/A
SAINT JOSEPH      16     100/  3/  6 1029.5R

$$
&&



USA.gov is the U.S. government's official web portal to all federal, state and local government web resources and services.